THORAD AGENA D DEB, 19667

Orbit data source: Space-Track

THORAD AGENA D DEB, 19667 is space debris in SSO originally from a launch on Wed, 08 Apr 1970 UTC launched from the Air Force Western Test Range (AFWTR). Debris objects in space refer to the collection of defunct objects orbiting the Earth. Examples of debris include non-operational satellites, rocket bodies, and fragments generated from explosions, collisions, or faulty payload assembly.

Loading next visibility...
Identifier
19667, 1970-025QC
Orbit
SSO
Country
Flag of USUS
Related business
Manufacturer
Unknown
Mission
Spacecraft
Bus & Motor
Unknown
Mass
Unknown
Launch date (UTC)
1970-04-08 (56 years ago)
Launch vehicle
Unknown
Launch site
Air Force Western Test Range (AFWTR)
Object type
Payload
Rocket body
Debris
Shape & HBR
Unknown shape, 0.1 m
Radar Cross Section
Small (<0.1 m²)

Expand to show TLE details & history
Last TLE update: 11 hours ago

TLE from 11 hours ago
0 THORAD AGENA D DEB
1 19667U 70025QC  25287.28890729  .00000515  00000-0  17403-2 0  9990
2 19667  99.7404 219.6114 0340738 317.5910 200.8882 12.85989249750242
Epoch: 2025-10-14T06:56Z
TLE epoch observation values (Epoch: 2025-10-14T06:56:01.589Z)
Latitude
22.5263°
Longitude
-83.41173°
Altitude
1,566.14 km
Speed
6.972 km/s
True Right ascension
02h 54m 41s
True Declination
22° 25' 02"
Sunlit
Object was in full shadow at epoch
Visualization orbit readout
Latitude
Unknown
Longitude
Unknown
Altitude
Unknown
Speed
Unknown
Apparent Right ascension
Unknown
Apparent Declination
Unknown
Sunlit
N/A
Visualization observer readout
Local Sidereal Time
12:54:20
Azimuth
Unknown
Elevation
Unknown
Doppler factor
Unknown
Orbital elements
Apogee altitude
1,576.998 km
Perigee altitude
1,052.738 km
Semi-major axis
7,693.005 km
Eccentricity
0.03407
Inclination
99.7404°
RAAN
219.6114°
Arg. of periapsis
317.591°
True anomaly
199.54952°
Mean anomaly
200.8882°
Eccentric anomaly
200.21364°
Mean motion
3.21662 °/min
Orbital period
111.92 mins
BSTAR
0.0017403

Documentation

Showing up to 5 results
|